Weather History for Staunton, VA

Change the Weather History Date:

Friday, February 21, 2014

  Actual Average Record
Temperature  
Mean Temperature 48 °F -  
Max Temperature 60 °F 47 °F 123 °F (1997)
Min Temperature 37 °F 27 °F 14 °F (2009)
Degree Days  
Heating Degree Days 16    
Moisture  
Dew Point 33 °F    
Average Humidity 58    
Maximum Humidity 87    
Minimum Humidity 25    
Precipitation  
Precipitation 0.22 in - - ()
Sea Level Pressure  
Sea Level Pressure 29.84 in    
Wind  
Wind Speed 6 mph (SW)    
Max Wind Speed 22 mph    
Max Gust Speed 34 mph    
Visibility 10 miles    
Events Rain    
Averages and records for this station are not official NWS values.
T = Trace of Precipitation, MM = Missing Value Source: NWS Daily Summary

Daily Weather History Graph

Daily Weather History Graph

Search for Another Location

Airport:

Trip Planner

Search our weather history database for the weather conditions in past years. The results will help you decide how hot, cold, wet, or windy it might be!

Date:

Astronomy

Feb. 21, 2014 Rise Set
Actual Time 6:58 AM EST 6:00 PM EST
Civil Twilight 6:31 AM EST 6:27 PM EST
Nautical Twilight 6:00 AM EST 6:58 PM EST
Astronomical Twilight 5:30 AM EST 7:28 PM EST
Moon No Moon Rise 10:27 AM EST (2/21)
Length of Visible Light 11h 55m
Length of Day
11h 02m
Waning Gibbous, 61% of the Moon is Illuminated
Feb 21
Waning Gibbous
Feb 22
Last Quarter
Mar 1
New
Mar 8
First Quarter
Mar 16
Full

Hourly Weather History & Observations

Time (EST) Temp. Windchill Dew Point Humidity Pressure Visibility Wind Dir Wind Speed Gust Speed Precip Events Conditions
12:15 AM 41.4 °F 39.4 °F 31.5 °F 68% 29.92 in 10.0 mi WSW 3.5 mph - N/A   Clear
12:35 AM 40.1 °F - 31.5 °F 71% 29.91 in 10.0 mi Calm Calm - N/A   Clear
12:55 AM 39.0 °F - 31.5 °F 74% 29.90 in 10.0 mi Calm Calm - N/A   Clear
1:15 AM 38.7 °F - 31.6 °F 76% 29.89 in 10.0 mi Calm Calm - N/A   Clear
1:35 AM 37.9 °F - 31.8 °F 79% 29.89 in 10.0 mi Calm Calm - N/A   Clear
1:55 AM 38.3 °F - 32.0 °F 78% 29.88 in 10.0 mi Calm Calm - N/A   Clear
2:15 AM 41.7 °F 39.8 °F 34.7 °F 76% 29.88 in 10.0 mi SW 3.5 mph - N/A   Scattered Clouds
2:35 AM 42.8 °F 41.1 °F 34.7 °F 73% 29.87 in 10.0 mi West 3.5 mph - N/A   Scattered Clouds
2:55 AM 41.2 °F - 34.2 °F 76% 29.85 in 10.0 mi Calm Calm - N/A   Mostly Cloudy
3:15 AM 40.5 °F 38.4 °F 34.0 °F 78% 29.84 in 10.0 mi West 3.5 mph - N/A   Scattered Clouds
3:35 AM 40.6 °F - 34.5 °F 79% 29.84 in 10.0 mi Calm Calm - N/A   Scattered Clouds
3:55 AM 41.0 °F - 35.6 °F 81% 29.83 in 10.0 mi Calm Calm - N/A   Mostly Cloudy
4:15 AM 42.3 °F 39.4 °F 36.7 °F 81% 29.83 in 10.0 mi South 4.6 mph - N/A   Overcast
4:35 AM 46.6 °F - 40.8 °F 80% 29.80 in 10.0 mi SSE 5.8 mph - N/A   Mostly Cloudy
4:55 AM 47.5 °F - 43.3 °F 86% 29.80 in 10.0 mi SSW 5.8 mph - N/A   Scattered Clouds
5:15 AM 52.9 °F - 48.4 °F 85% 29.79 in 10.0 mi South 6.9 mph - N/A   Overcast
5:35 AM 54.5 °F - 48.6 °F 80% 29.79 in 10.0 mi SW 4.6 mph - N/A   Overcast
5:55 AM 56.5 °F - 49.5 °F 77% 29.77 in 10.0 mi South 9.2 mph - N/A   Overcast
6:15 AM 57.6 °F - 50.4 °F 77% 29.77 in 10.0 mi South 9.2 mph - N/A   Overcast
6:35 AM 58.6 °F - 51.1 °F 76% 29.76 in 10.0 mi South 11.5 mph 17.3 mph N/A   Overcast
6:55 AM 59.2 °F - 51.3 °F 75% 29.76 in 10.0 mi South 6.9 mph - N/A   Overcast
7:15 AM 58.5 °F - 51.4 °F 77% 29.74 in 10.0 mi South 11.5 mph - N/A   Overcast
7:35 AM 59.9 °F - 52.0 °F 75% 29.74 in 10.0 mi South 11.5 mph 17.3 mph N/A   Overcast
7:55 AM 60.8 °F - 52.2 °F 73% 29.75 in 10.0 mi SSW 10.4 mph 17.3 mph N/A   Overcast
8:15 AM 60.8 °F - 52.2 °F 73% 29.74 in 10.0 mi South 10.4 mph - N/A Rain Light Rain
8:35 AM 59.7 °F - 53.1 °F 79% 29.76 in 5.0 mi South 9.2 mph - 0.01 in Rain Rain
8:55 AM 58.5 °F - 54.0 °F 85% 29.74 in 10.0 mi SSW 9.2 mph - 0.04 in Rain Rain
9:15 AM 58.5 °F - 54.1 °F 86% 29.74 in 5.0 mi SSW 20.7 mph 26.5 mph 0.03 in Rain Rain
9:35 AM 59.0 °F - 53.8 °F 83% 29.76 in 3.0 mi SSW 21.9 mph 34.5 mph 0.09 in Rain Rain
9:55 AM 57.7 °F - 52.9 °F 84% 29.76 in 5.0 mi SW 18.4 mph 32.2 mph 0.15 in Rain Rain
10:15 AM 56.8 °F - 52.0 °F 84% 29.75 in 10.0 mi South 10.4 mph - 0.01 in Rain Rain
10:35 AM 55.8 °F - 52.0 °F 87% 29.72 in 10.0 mi SSW 8.1 mph - 0.03 in Rain Light Rain
10:55 AM 56.3 °F - 52.0 °F 85% 29.73 in 10.0 mi SW 8.1 mph - 0.03 in   Mostly Cloudy
11:15 AM 56.5 °F - 52.0 °F 85% 29.71 in 10.0 mi WSW 9.2 mph - N/A   Overcast
11:35 AM 57.2 °F - 51.6 °F 82% 29.74 in 10.0 mi West 21.9 mph 29.9 mph N/A Rain Light Rain
11:55 AM 51.4 °F - 42.1 °F 70% 29.78 in 10.0 mi West 10.4 mph 21.9 mph N/A   Overcast
12:15 PM 50.4 °F - 39.0 °F 65% 29.81 in 10.0 mi West 17.3 mph 25.3 mph N/A   Overcast
12:35 PM 49.5 °F - 36.7 °F 61% 29.80 in 10.0 mi West 12.7 mph 23.0 mph N/A   Overcast
12:55 PM 49.1 °F - 34.5 °F 57% 29.80 in 10.0 mi West 15.0 mph 20.7 mph N/A   Overcast
1:15 PM 48.7 °F - 34.9 °F 59% 29.80 in 10.0 mi WSW 4.6 mph - N/A   Overcast
1:35 PM 50.0 °F - 34.0 °F 54% 29.80 in 10.0 mi SW 9.2 mph - N/A   Overcast
1:55 PM 50.5 °F - 31.5 °F 48% 29.79 in 10.0 mi SW 11.5 mph 17.3 mph N/A   Mostly Cloudy
2:15 PM 51.6 °F - 29.1 °F 42% 29.79 in 10.0 mi SW 12.7 mph 17.3 mph N/A   Scattered Clouds
2:35 PM 52.0 °F - 26.1 °F 37% 29.79 in 10.0 mi SW 10.4 mph 16.1 mph N/A   Clear
2:55 PM 52.9 °F - 25.7 °F 35% 29.79 in 10.0 mi SW 6.9 mph - N/A   Clear
3:15 PM 53.8 °F - 26.2 °F 35% 29.80 in 10.0 mi SSW 5.8 mph 17.3 mph N/A   Clear
3:35 PM 54.9 °F - 20.7 °F 26% 29.79 in 10.0 mi WSW 11.5 mph 16.1 mph N/A   Clear
3:55 PM 54.9 °F - 21.2 °F 27% 29.79 in 10.0 mi WSW 11.5 mph 21.9 mph N/A   Clear
4:15 PM 54.5 °F - 23.0 °F 29% 29.80 in 10.0 mi WSW 11.5 mph - N/A   Clear
4:35 PM 54.0 °F - 23.4 °F 30% 29.80 in 10.0 mi SW 8.1 mph - N/A   Clear
4:55 PM 53.6 °F - 22.6 °F 30% 29.81 in 10.0 mi SW 9.2 mph - N/A   Clear
5:15 PM 52.9 °F - 23.2 °F 31% 29.82 in 10.0 mi WSW 8.1 mph - N/A   Clear
5:35 PM 53.4 °F - 17.8 °F 25% 29.84 in 10.0 mi WSW 8.1 mph - N/A   Clear
5:55 PM 49.6 °F - 21.2 °F 33% 29.85 in 10.0 mi SW 8.1 mph - N/A   Clear
6:15 PM 47.7 °F - 20.1 °F 34% 29.86 in 10.0 mi SW 6.9 mph - N/A   Clear
6:35 PM 47.7 °F - 18.7 °F 32% 29.87 in 10.0 mi WSW 9.2 mph - N/A   Clear
6:55 PM 50.2 °F - 16.2 °F 26% 29.88 in 10.0 mi West 8.1 mph - N/A   Clear
7:15 PM 49.5 °F - 16.0 °F 26% 29.91 in 10.0 mi WSW 6.9 mph - N/A   Clear
7:35 PM 45.3 °F 43.0 °F 18.5 °F 34% 29.93 in 10.0 mi WSW 4.6 mph - N/A   Clear
7:55 PM 45.3 °F 42.3 °F 17.1 °F 32% 29.93 in 10.0 mi West 5.8 mph - N/A   Clear
8:15 PM 46.8 °F - 17.4 °F 31% 29.94 in 10.0 mi West 4.6 mph - N/A   Clear
8:35 PM 45.0 °F 43.5 °F 18.3 °F 35% 29.94 in 10.0 mi West 3.5 mph - N/A   Clear
8:55 PM 42.6 °F 39.0 °F 18.0 °F 37% 29.96 in 10.0 mi West 5.8 mph - N/A   Clear
9:15 PM 45.9 °F 42.3 °F 16.9 °F 31% 29.96 in 10.0 mi West 6.9 mph - N/A   Clear
9:35 PM 46.0 °F 42.5 °F 17.4 °F 32% 29.97 in 10.0 mi West 6.9 mph - N/A   Clear
9:55 PM 44.4 °F 40.5 °F 17.6 °F 34% 29.98 in 10.0 mi West 6.9 mph - N/A   Clear
10:15 PM 44.1 °F 41.5 °F 17.8 °F 35% 29.98 in 10.0 mi West 4.6 mph - N/A   Clear
10:35 PM 44.1 °F - 17.8 °F 35% 29.99 in 10.0 mi Calm Calm - N/A   Clear
10:55 PM 41.2 °F - 19.6 °F 42% 29.99 in 10.0 mi Calm Calm - N/A   Clear
11:15 PM 43.2 °F 39.7 °F 17.8 °F 36% 30.00 in 10.0 mi West 5.8 mph - N/A   Clear
11:35 PM 43.5 °F 40.1 °F 17.4 °F 35% 30.01 in 10.0 mi West 5.8 mph - N/A   Clear
11:55 PM 43.5 °F 40.1 °F 16.9 °F 34% 30.01 in 10.0 mi West 5.8 mph - N/A   Clear